Regional Weather Roundup
Issued by NWS

Home | Current Version | Previous Version | Text Only | Print | Product List | Glossary Off
Versions: 1 2 3 4 5 6 7 8 9 10 11 12 13 14 15 16 17 18 19 20 21 22 23 24 25 26 27 28 29 30 31 32 33 34 35 36 37 38 39 40 41 42 43 44 45 46 47 48 49 50

000
ASUS43 KIND 242309
RWRIN

WEATHER ROUNDUP FOR INDIANA
NATIONAL WEATHER SERVICE INDIANAPOLIS IN
700 PM EDT THU APR 24 2014

NOTE: "FAIR" INDICATES FEW OR NO CLOUDS BELOW 12,000 FEET WITH NO
SIGNIFICANT WEATHER AND/OR OBSTRUCTIONS TO VISIBILITY.

* - STATION DOES NOT REPORT WEATHER SUCH AS PRECIPITATION OR FOG.

+ - STATION NOT QUALITY CONTROLLED BY THE NATIONAL WEATHER SERVICE.
    USE DATA WITH CAUTION...ESPECIALLY DEWPOINT AND RELATIVE
    HUMIDITY OBSERVATIONS.

INZ001>003-010>013-019-020-250000-
NORTHWEST INDIANA

CITY           SKY/WX    TMP DP  RH WIND       PRES   REMARKS
GARY /AIRPORT/ CLOUDY    63  25  23 SE24G36   29.74F
LA PORTE +     CLOUDY    58  21  23 SE17G25   29.79F
MICHIGAN CITY+ CLOUDY    59  19  21 SE8G23    29.77F
MONTICELLO +   CLOUDY    62  32  32 SE12G18   29.77F
RENSSELAER +   CLOUDY    63  28  27 E20       29.75F
VALPARAISO     CLOUDY    59  22  24 SE20G28   29.77F

$$

LMZ046-743>745-250000-
SOUTHERN LAKE MICHIGAN

STATION/POSITION TIME  TEMP WIND        PRES
                       AIR  DIR/SP/G
                 (UTC) (F)  (DEG/KT/KT) (MB)
MICHIGAN CITY    2300   60  110/ 19/ 27   N/A

$$

INZ004-005-014>016-021>024-250000-
NORTH CENTRAL INDIANA

CITY           SKY/WX    TMP DP  RH WIND       PRES   REMARKS
ELKHART        CLOUDY    57  21  24 SE15G24   29.84F
GOSHEN         CLOUDY    58  25  28 SE16G25   29.84F
LOGANSPORT +   CLOUDY    61  27  27 SE16      29.81F
PERU/GRISSOM   CLOUDY    61  28  28 E16G25    29.81F
ROCHESTER +    CLOUDY    61  23  23 SE12G22   29.83F
SOUTH BEND     CLOUDY    59  23  25 SE24G30   29.82F
WARSAW +       CLOUDY    57  25  28 SE13G23   29.85S

$$

INZ006>009-017-018-025>027-250000-
NORTHEAST INDIANA

CITY           SKY/WX    TMP DP  RH WIND       PRES   REMARKS
ANGOLA *+      SUNNY     54  27  35 SE15      29.90S
AUBURN +       CLOUDY    55  23  28 E9G16     29.90F
FORT WAYNE     CLOUDY    58  22  24 E20       29.88F

$$

INZ028-029-035-036-043>045-051>053-250000-
WEST CENTRAL INDIANA

CITY           SKY/WX    TMP DP  RH WIND       PRES   REMARKS
GREENCASTLE +  PTSUNNY   68  39  34 SE16      29.78F
LAFAYETTE      CLOUDY    63  35  35 SE13G22   29.75F
TERRE HAUTE    CLOUDY    70  38  31 SE17      29.73F

$$

INZ030>032-037>040-046>048-054>057-064-065-250000-
CENTRAL INDIANA

CITY           SKY/WX    TMP DP  RH WIND       PRES   REMARKS
CP ATTERBURY + PTSUNNY   66  37  34 SE10G16   29.81F
COLUMBUS       SUNNY     66  37  34 SE9       29.81F
INDIANAPOLIS   CLOUDY    64  36  35 SE14      29.79F
-EAGLE CREEK   PTSUNNY   65  35  33 SE10      29.79F
KOKOMO *+      CLOUDY    61  28  29 SE17      29.82F
MARION +       CLOUDY    61  21  22 SE13      29.85F
MT COMFORT *+  PTSUNNY   66  36  32 SE16      29.82F
SHELBYVILLE    PTSUNNY   68  35  29 SE15      29.81F
ZIONSVILLE +   PTSUNNY   65  30  26 SE14G22   29.81F

$$

INZ033-034-041-042-049-050-058-059-250000-
EAST CENTRAL INDIANA

CITY           SKY/WX    TMP DP  RH WIND       PRES   REMARKS
MUNCIE         CLOUDY    61  24  24 SE12      29.85F

$$

INZ060-061-067>069-081>083-085>088-250000-
SOUTHWEST INDIANA

CITY           SKY/WX    TMP DP  RH WIND       PRES   REMARKS
EVANSVILLE     CLOUDY    76  37  24 S12       29.72F
HUNTINGBURG *+ PTSUNNY   72  39  30 S8        29.76F
WASHINGTON +   PTSUNNY   72  40  31 S10       29.74F

$$

INZ062-063-066-070>080-084-089>092-250000-
SOUTH CENTRAL AND SOUTHEAST INDIANA

CITY           SKY/WX    TMP DP  RH WIND       PRES   REMARKS
BLOOMINGTON    CLOUDY    70  36  28 SE9       29.78F

$$




USA.gov is the U.S. government's official web portal to all federal, state and local government web resources and services.